Location: Auckland
(36.8670°S, 174.7670°E)
Time: 02:53:51
(UTC+13:00)

ISS - Pass Details

Date: 01 February 2019
Orbit: 403 x 411 km, 51.6° (Epoch: 18 February)

Event Time Altitude Azimuth Distance (km) Brightness Sun altitude
Exits shadow 05:20:33 17° 256° (WSW) 1,141 -1.9 -14.0°
Maximum altitude 05:22:18 26° 211° (SSW) 873 -2.1 -13.7°
Drops below altitude 10° 05:25:10 10° 153° (SSE) 1,498 0.0 -13.3°
Sets 05:27:30 0° 139° (SE) 2,363 1.7 -12.9°
